Hourly Data Report for December 11, 2017

All times are specified in Local Standard Time (LST). Add 1 hour to adjust for Daylight Saving Time where and when it is observed.

VICTORIA HARBOUR A
BRITISH COLUMBIA

48°25'22.000" N
123°23'15.000" W
     
1018633
YWH

Related Data

No related data is available for this station

Download Data

Hourly Data (December 2017)
Hourly Data Report for December 11, 2017
Temp Definition
°C
Dew Point Temp Definition
°C
Rel Hum Definition
%
Wind Dir Definition
10's deg

Wind Spd Definition
km/h
Visibility Definition
km
Stn Press Definition
kPa
Hmdx Definition


Wind Chill Definition


Weather Definition


TIME
00:00 Legend Double Dagger 5.4 3.2 86 8 8 LegendMM 102.71     LegendNANA
01:00 Legend Double Dagger 5.9 2.8 80 7 8 LegendMM 102.70     LegendNANA
02:00 Legend Double Dagger 5.5 3.2 85 6 8 LegendMM 102.68     LegendNANA
03:00 Legend Double Dagger 4.2 2.4 88 4 5 LegendMM 102.70     LegendNANA
04:00 Legend Double Dagger 4.1 2.0 86 5 2 LegendMM 102.69     LegendNANA
05:00 Legend Double Dagger 4.7 1.4 79 1 4 LegendMM 102.69     LegendNANA
06:00 Legend Double Dagger 4.1 2.1 86 3 3 LegendMM 102.70     LegendNANA
07:00 Legend Double Dagger 3.4 1.6 88 2 10 LegendMM 102.68     LegendNANA
08:00 Legend Double Dagger 3.7 2.2 90 3 7 LegendMM 102.70     LegendNANA
09:00 Legend Double Dagger 4.0 2.1 88 1 6 LegendMM 102.70     LegendNANA
10:00 Legend Double Dagger 5.6 3.0 83 36 4 LegendMM 102.74     LegendNANA
11:00 Legend Double Dagger 7.0 1.8 69 7 9 LegendMM 102.73     LegendNANA
12:00 Legend Double Dagger 7.4 0.9 64 8 13 LegendMM 102.73     LegendNANA
13:00 Legend Double Dagger 7.4 1.0 64 6 9 LegendMM 102.70     LegendNANA
14:00 Legend Double Dagger 6.9 1.9 70 34 5 LegendMM 102.81     LegendNANA
15:00 Legend Double Dagger 6.3 2.3 75 9 14 LegendMM 102.77     LegendNANA
16:00 Legend Double Dagger 6.0 3.0 81 6 5 LegendMM 102.81     LegendNANA
17:00 Legend Double Dagger 5.3 2.8 84 33 7 LegendMM 102.84     LegendNANA
18:00 Legend Double Dagger 4.2 1.7 83 35 9 LegendMM 102.82     LegendNANA
19:00 Legend Double Dagger 4.3 1.9 84 4 4 LegendMM 102.84     LegendNANA
20:00 Legend Double Dagger 3.4 1.4 87 1 3 LegendMM 102.88     LegendNANA
21:00 Legend Double Dagger 2.6 0.5 86 34 6 LegendMM 102.92     LegendNANA
22:00 Legend Double Dagger 2.5 0.9 89 2 4 LegendMM 102.92     LegendNANA
23:00 Legend Double Dagger 2.5 0.6 87 1 10 LegendMM 102.97     LegendNANA

Notes on Data Quality.

Legend

  • E = Estimated
  • M = Missing
  • NA = Not Available
  • ‡ = Partner data that is not subject to review by the National Climate Archives
Date modified: